OV1-5 DEB

Satellite information

Favourite Embed

Satellite Type and Status

DEBRISIN ORBIT

Key statistics

Satellite OV1-5 DEB at a glance.

Uptime

21710

Days in orbit

Revolutions

≈ 14.8

Per day

Orbit

SSO

Sun Synchronous Orbit

Inclination

144.6

Latest

Satellite identification and parameters

Extended collection of information and parameters for OV1-5 DEB.

Object identification

Identified? True

Debris? True

Object name: OV1-5 DEB

International designator: 1966-025G

Object number (NORAD): 5599

Object ID (CCSDS): 5599

Country: UNITED STATES OF AMERICA (US)

Current information (Y/N): Y

RCS size: SMALL

Orbital parameters

Period: 97.487 minutes

Inclination: 144.6177 deg

SMA: 7016.588 km

Apoapsis: 658.769 km

Periapsis: 618.138 km

RAAN: 291.7343 deg

Eccentricy: 0.0028953

Argument of periapsis: 10.7095 deg

Mean anomaly: 349.4229 deg

Mean motion: 14.77113126 rev/day

Mean motion (dot): 0.00038759 rev/day2

B* drag term: 0.0052441517 1/REarth

Two-line elements (TLE)

Creation date: Sept. 5, 2025, 7:38 p.m.

Reference frame: TEME

Reference center: EARTH

Epoch: Sept. 5, 2025, 8:04 a.m. UTC

TLE line 0: 0 OV1-5 DEB

TLE line 1: 1 05599U 66025G 25248.33663252 .00038759 00000-0 52442-2 0 9999

TLE line 2: 2 05599 144.6177 291.7343 0028953 10.7095 349.4229 14.77113126 62103

Live tracking on map

Real-time ground track for satellite OV1-5 DEB.

In-orbit conjunctions

A list of the most updated potential collisions computed for object OV1-5 DEB.

Target Orbit TCA Probability of collision Miss distance Type
CZ-6A DEB SSO 2024-11-10 21:26:02 0.0001155706 528.0 (m) DEBRIS

Associated space launch

The OV1 (Orbiting Vehicle 1) were small research satellite to be launched piggy back on Atlas ICBM test flights. They consisted in general of the OV1 satellite and the OV1-PM propulsion module (or upper stage) to reach orbit.

OV1-5 DEB was lifted into orbit during the mission ‘Atlas D | OV1-4 & 5’, on board a Atlas D space rocket.

The launch took place on March 30, 1966, 9:20 a.m. from 576B3.

For more information about the launch, click the button.

Launch to space Atlas D | OV1-4 & 5
Atlas D | OV1-4 & 5

Agency: N/A

Status: Launch Successful

Launch date: March 30, 1966, 9:20 a.m. UTC

Rocket: Atlas D

Launch pad: 576B3

Location: Vandenberg SFB, CA, USA

...

Latest news about this satellite

There are no fresh news available about this satellite. Check back as we update our databases every day.


Newsletter sign-up

Weekly statistics, charts and insights to help you stay on top of the space industry.